Weather History for KCFE - February, 2014

Change the Weather History Date:

Wednesday, February 19, 2014

  Actual Average (KSTC) Record (KSTC)
Temperature  
Mean Temperature 26 °F 18 °F  
Max Temperature 38 °F 28 °F 56 °F (1981)
Min Temperature 14 °F 9 °F -26 °F (1910)
Degree Days  
Heating Degree Days 39 47  
Month to date heating degree days 942  
Since 1 July heating degree days 6044  
Cooling Degree Days 0 0  
Month to date cooling degree days 0  
Year to date cooling degree days 0  
Moisture  
Dew Point 23 °F    
Average Humidity 82    
Maximum Humidity 95    
Minimum Humidity 67    
Precipitation  
Precipitation 0.00 in 0.03 in 0.53 in (1971)
Month to date precipitation 0.35  
Year to date precipitation 1.00  
Snow  
Snow 0.00 in 0.20 in 4.90 in (1951)
Month to date snowfall 4.4  
Since 1 July snowfall 31.6  
Snow Depth -    
Sea Level Pressure  
Sea Level Pressure 29.75 in    
Wind  
Wind Speed 5 mph (SSE)    
Max Wind Speed 13 mph    
Max Gust Speed 20 mph    
Visibility 8 miles    
Events      
T = Trace of Precipitation, MM = Missing Value Source: NWS Daily Summary

Daily Weather History Graph

Daily Weather History Graph

Search for Another Location

Airport or City:

Trip Planner

Search our weather history database for the weather conditions in past years. The results will help you decide how hot, cold, wet, or windy it might be!

Date:

Astronomy

Feb. 19, 2014 Rise Set
Actual Time 7:10 AM CST 5:48 PM CST
Civil Twilight 6:40 AM CST 6:18 PM CST
Nautical Twilight 6:05 AM CST 6:53 PM CST
Astronomical Twilight 5:31 AM CST 7:27 PM CST
Moon 10:58 PM CST (2/19) 9:02 AM CST (2/19)
Length of Visible Light 11h 38m
Length of Day
10h 38m
Waning Gibbous, 79% of the Moon is Illuminated
Feb 19
Waning Gibbous
Feb 22
Last Quarter
Mar 1
New
Mar 8
First Quarter
Mar 16
Full

Hourly Weather History & Observations

Time (CST) Temp. Windchill Dew Point Humidity Pressure Visibility Wind Dir Wind Speed Gust Speed Precip Events Conditions
12:15 AM 24.8 °F 17.9 °F 19.6 °F 81% 29.77 in 10.0 mi WSW 5.8 mph - N/A   Clear
12:35 AM 24.8 °F 17.9 °F 19.8 °F 81% 29.77 in 10.0 mi WSW 5.8 mph - N/A   Clear
12:56 AM 24.4 °F 17.5 °F 19.6 °F 82% 29.77 in 10.0 mi WSW 5.8 mph - N/A   Clear
1:15 AM 23.9 °F 16.8 °F 19.4 °F 83% 29.77 in 10.0 mi WSW 5.8 mph - N/A   Clear
1:35 AM 24.6 °F 17.7 °F 19.9 °F 82% 29.77 in 10.0 mi WSW 5.8 mph - N/A   Clear
1:56 AM 23.0 °F 15.8 °F 19.0 °F 85% 29.78 in 10.0 mi WSW 5.8 mph - N/A   Clear
2:15 AM 23.4 °F 16.2 °F 19.8 °F 86% 29.78 in 10.0 mi WSW 5.8 mph - N/A   Clear
2:35 AM 23.0 °F 17.0 °F 19.6 °F 87% 29.78 in 10.0 mi WSW 4.6 mph - N/A   Clear
2:56 AM 21.2 °F - 18.0 °F 87% 29.79 in 10.0 mi Calm Calm - N/A   Clear
3:15 AM 20.3 °F 15.4 °F 17.6 °F 89% 29.79 in 10.0 mi SW 3.5 mph - N/A   Clear
3:36 AM 19.9 °F 13.4 °F 18.0 °F 92% 29.78 in 10.0 mi SSW 4.6 mph - N/A   Clear
3:56 AM 19.2 °F - 17.4 °F 93% 29.77 in 10.0 mi Calm Calm - N/A   Clear
4:15 AM 20.3 °F 15.4 °F 18.7 °F 93% 29.78 in 10.0 mi SSW 3.5 mph - N/A   Clear
4:36 AM 18.0 °F - 16.0 °F 92% 29.79 in 5.0 mi Calm Calm - N/A   Clear
4:56 AM 17.4 °F - 15.4 °F 92% 29.79 in 3.0 mi Calm Calm - N/A   Mist
5:15 AM 16.9 °F - 14.9 °F 92% 29.79 in 4.0 mi Calm Calm - N/A   Clear
5:36 AM 17.2 °F - 15.3 °F 92% 29.79 in 7.0 mi Calm Calm - N/A   Clear
5:56 AM 14.4 °F - 12.4 °F 92% 29.79 in 5.0 mi Calm Calm - N/A   Clear
6:15 AM 16.3 °F 10.8 °F 14.2 °F 91% 29.79 in 7.0 mi SSW 3.5 mph - N/A   Clear
6:36 AM 16.0 °F - 14.0 °F 92% 29.79 in 4.0 mi Calm Calm - N/A   Clear
6:56 AM 14.7 °F - 12.7 °F 92% 29.79 in 4.0 mi Calm Calm - N/A   Clear
7:15 AM 16.3 °F - 14.4 °F 92% 29.80 in 1.5 mi Calm Calm - N/A   Mist
7:36 AM 16.7 °F - 14.9 °F 93% 29.80 in 1.8 mi Calm Calm - N/A   Mist
7:56 AM 17.8 °F - 16.0 °F 93% 29.80 in 2.0 mi Calm Calm - N/A   Clear
8:15 AM 17.8 °F - 15.8 °F 92% 29.80 in 1.8 mi Calm Calm - N/A   Mist
8:36 AM 20.1 °F 15.2 °F 18.5 °F 93% 29.81 in 5.0 mi South 3.5 mph - N/A   Scattered Clouds
8:55 AM 20.5 °F - 19.0 °F 94% 29.82 in 5.0 mi Calm Calm - N/A   Scattered Clouds
9:16 AM 21.2 °F 14.9 °F 19.8 °F 94% 29.82 in 7.0 mi SSW 4.6 mph - N/A   Clear
9:35 AM 21.0 °F 13.4 °F 19.4 °F 93% 29.82 in 2.5 mi SSW 5.8 mph - N/A   Scattered Clouds
9:55 AM 21.0 °F - 19.4 °F 93% 29.83 in 1.0 mi Calm Calm - N/A   Overcast
10:16 AM 21.9 °F 17.2 °F 20.5 °F 94% 29.82 in 4.0 mi South 3.5 mph - N/A   Overcast
10:35 AM 23.7 °F 17.8 °F 22.5 °F 95% 29.82 in 10.0 mi SSW 4.6 mph - N/A   Scattered Clouds
10:56 AM 24.8 °F - 23.5 °F 95% 29.82 in 10.0 mi Calm Calm - N/A   Clear
11:16 AM 25.5 °F 19.9 °F 23.9 °F 94% 29.81 in 10.0 mi South 4.6 mph - N/A   Clear
11:35 AM 26.4 °F 20.9 °F 23.9 °F 90% 29.81 in 10.0 mi South 4.6 mph - N/A   Clear
11:56 AM 28.2 °F 24.4 °F 24.6 °F 86% 29.81 in 10.0 mi South 3.5 mph - N/A   Clear
12:16 PM 30.7 °F - 25.2 °F 80% 29.79 in 10.0 mi Calm Calm - N/A   Clear
12:35 PM 32.0 °F 28.7 °F 26.1 °F 79% 29.79 in 10.0 mi SSE 3.5 mph - N/A   Clear
12:56 PM 32.9 °F 29.8 °F 26.4 °F 77% 29.78 in 10.0 mi SSE 3.5 mph - N/A   Clear
1:15 PM 33.8 °F 29.6 °F 26.6 °F 75% 29.77 in 10.0 mi SSE 4.6 mph - N/A   Clear
1:35 PM 35.6 °F 31.7 °F 27.3 °F 72% 29.77 in 10.0 mi South 4.6 mph - N/A   Clear
1:56 PM 36.1 °F 30.6 °F 27.5 °F 71% 29.77 in 10.0 mi South 6.9 mph - N/A   Clear
2:15 PM 36.1 °F 31.4 °F 27.5 °F 71% 29.76 in 10.0 mi South 5.8 mph - N/A   Clear
2:35 PM 36.1 °F 31.4 °F 27.5 °F 71% 29.75 in 10.0 mi SSE 5.8 mph - N/A   Clear
2:56 PM 36.5 °F 32.7 °F 28.0 °F 71% 29.74 in 10.0 mi SE 4.6 mph - N/A   Clear
3:15 PM 36.5 °F 32.7 °F 28.0 °F 71% 29.74 in 10.0 mi SSE 4.6 mph - N/A   Clear
3:35 PM 37.4 °F 33.8 °F 28.4 °F 70% 29.74 in 10.0 mi SE 4.6 mph - N/A   Clear
3:56 PM 38.3 °F 33.2 °F 28.4 °F 68% 29.73 in 10.0 mi ESE 6.9 mph - N/A   Clear
4:15 PM 38.3 °F 33.9 °F 28.4 °F 68% 29.72 in 10.0 mi ESE 5.8 mph - N/A   Clear
4:35 PM 38.3 °F 32.5 °F 28.0 °F 67% 29.71 in 10.0 mi ESE 8.1 mph - N/A   Clear
4:56 PM 37.4 °F 32.1 °F 28.4 °F 70% 29.72 in 10.0 mi SE 6.9 mph - N/A   Clear
5:16 PM 37.6 °F 31.0 °F 28.4 °F 69% 29.70 in 10.0 mi ESE 9.2 mph - N/A   Clear
5:35 PM 37.8 °F 30.7 °F 28.4 °F 69% 29.70 in 10.0 mi ESE 10.4 mph - N/A   Scattered Clouds
5:56 PM 37.4 °F 31.4 °F 28.2 °F 69% 29.70 in 10.0 mi SE 8.1 mph - N/A   Mostly Cloudy
6:15 PM 36.5 °F 30.3 °F 27.5 °F 70% 29.70 in 10.0 mi ESE 8.1 mph - N/A   Clear
6:36 PM 36.0 °F 28.5 °F 27.0 °F 70% 29.69 in 10.0 mi ESE 10.4 mph - N/A   Clear
6:55 PM 35.6 °F 27.5 °F 26.8 °F 70% 29.69 in 10.0 mi ESE 11.5 mph - N/A   Clear
7:16 PM 35.6 °F 28.6 °F 27.0 °F 71% 29.68 in 10.0 mi ESE 9.2 mph - N/A   Clear
7:36 PM 35.6 °F 29.2 °F 27.5 °F 72% 29.68 in 10.0 mi SE 8.1 mph - N/A   Clear
7:55 PM 35.2 °F 27.6 °F 28.0 °F 75% 29.67 in 10.0 mi ESE 10.4 mph - N/A   Clear
8:16 PM 35.4 °F 27.8 °F 28.4 °F 76% 29.67 in 10.0 mi SE 10.4 mph 17.3 mph N/A   Clear
8:36 PM 35.6 °F 27.1 °F 28.4 °F 75% 29.67 in 10.0 mi SE 12.7 mph - N/A   Clear
8:55 PM 35.2 °F 28.1 °F 29.1 °F 78% 29.66 in 10.0 mi SE 9.2 mph - N/A   Clear
9:15 PM 34.9 °F 29.0 °F 29.3 °F 80% 29.66 in 10.0 mi SE 6.9 mph - N/A   Clear
9:36 PM 35.6 °F 28.6 °F 29.8 °F 80% 29.65 in 10.0 mi SE 9.2 mph - N/A   Clear
9:55 PM 36.5 °F 29.2 °F 29.8 °F 77% 29.65 in 10.0 mi SE 10.4 mph 18.4 mph N/A   Clear
10:15 PM 37.4 °F 29.3 °F 29.7 °F 74% 29.65 in 10.0 mi SE 12.7 mph 18.4 mph N/A   Clear
10:36 PM 37.4 °F 29.3 °F 29.3 °F 73% 29.65 in 10.0 mi SE 12.7 mph 19.6 mph N/A   Clear
10:55 PM 37.4 °F 29.3 °F 29.3 °F 73% 29.65 in 10.0 mi SSE 12.7 mph 17.3 mph N/A   Clear
11:15 PM 37.4 °F 29.8 °F 29.3 °F 73% 29.64 in 10.0 mi SSE 11.5 mph 17.3 mph N/A   Mostly Cloudy
11:35 PM 37.4 °F 30.3 °F 29.8 °F 74% 29.64 in 10.0 mi SSE 10.4 mph 19.6 mph N/A   Overcast
11:55 PM 37.4 °F 29.8 °F 29.8 °F 74% 29.64 in 10.0 mi SSE 11.5 mph 19.6 mph N/A   Overcast